Location: Unspecified
(41.9031°N, 12.4386°E)
Time: 17:39:33
(UTC+02:00)

ISS - Pass Details

Date: 24 May 2020
Orbit: 417 x 420 km, 51.6° (Epoch: 26 May)

Event Time Altitude Azimuth Distance (km) Brightness Sun altitude
Rises 21:30:40 0° 293° (WNW) 2,363 1.7 -9.7°
Reaches altitude 10° 21:33:23 10° 316° (NW) 1,501 0.7 -10.1°
Maximum altitude 21:35:32 16° 356° (N) 1,198 -0.8 -10.4°
Drops below altitude 10° 21:37:41 10° 36° (NE) 1,502 -0.9 -10.7°
Sets 21:40:24 0° 59° (ENE) 2,367 -0.1 -11.1°
